Wind_Speed
9 10 10 10 11 11 11 12 12 12 12 12 13 13 12 12 12 12 12 12 12 12 12 12 12 12 12 12 13 13 13 13 14 14 13 13 13 12 12 12 12 11 10 9
9 9 9 10 11 11 11 11 11 11 12 13 14 14 13 12 12 11 11 11 11 11 11 12 12 12 12 12 12 12 12 13 14 14 13 13 13 13 13 12 12 11 10 10
9 9 9 10 11 11 12 12 12 11 11 12 13 14 13 12 12 11 11 11 12 12 12 12 13 12 12 12 12 12 12 12 13 14 13 13 13 13 12 12 12 12 11 11
10 10 10 11 11 11 12 12 12 12 11 10 11 11 11 12 12 12 12 11 11 12 13 13 13 13 13 13 13 12 12 12 12 12 13 13 14 13 13 12 12 12 12 12
11 11 11 11 11 11 11 11 12 12 12 12 12 12 10 11 12 12 12 12 12 12 12 12 13 13 13 13 13 13 12 12 12 12 13 13 13 14 14 13 13 13 13 12
11 11 11 11 12 12 12 12 13 13 13 13 12 13 11 11 11 11 11 11 12 12 12 12 12 13 12 12 13 13 12 12 13 12 12 13 13 14 14 14 14 14 14 14
12 11 11 11 11 12 12 12 13 13 13 12 11 12 11 10 10 10 10 11 10 12 12 13 13 12 12 12 13 13 13 13 13 13 13 13 14 14 14 14 14 15 15 14
12 11 11 11 11 12 12 13 13 13 13 13 13 13 11 11 11 11 11 11 10 11 12 13 13 13 13 13 13 13 14 13 14 13 14 14 15 15 14 14 14 14 15 14
12 12 11 11 11 12 13 13 13 13 14 15 14 13 13 12 12 12 12 12 11 11 12 12 12 13 14 14 14 14 14 14 14 14 15 14 15 16 15 15 15 14 14 14
13 13 12 11 12 13 13 14 13 14 15 16 15 14 13 12 12 12 12 12 12 12 12 12 12 13 14 14 15 14 15 15 15 15 16 15 15 15 15 15 15 14 14 13
14 13 12 12 12 12 13 14 15 15 16 16 16 14 13 13 12 12 12 12 12 12 12 12 12 13 14 14 15 15 15 15 15 15 15 15 14 15 15 15 16 15 14 14
15 15 14 13 13 13 14 15 16 16 16 17 17 14 14 14 13 13 13 13 13 12 12 12 12 13 13 14 14 15 15 15 15 15 15 15 15 16 16 15 16 15 14 14
16 16 15 15 15 15 15 15 16 17 18 18 18 15 14 14 13 13 13 12 12 11 11 12 13 13 13 14 14 15 15 15 15 15 16 16 16 16 16 15 15 15 14 15
18 18 18 17 17 17 16 17 17 18 19 18 18 16 14 14 14 13 13 12 12 11 11 12 13 13 13 14 14 15 16 16 16 16 17 17 17 16 16 15 15 15 15 15
19 19 19 19 19 19 18 18 18 19 19 19 17 16 14 14 14 13 12 12 12 12 12 12 13 14 14 14 14 14 15 16 16 16 17 17 17 16 16 15 16 15 15 15
20 20 20 19 20 21 21 19 19 19 18 18 17 14 13 14 14 14 14 13 12 12 12 13 13 14 14 14 14 15 15 15 16 16 16 16 16 17 17 17 16 16 16 16
21 21 21 20 19 21 20 18 19 19 18 17 16 14 14 15 15 14 14 14 14 13 12 12 12 12 13 13 15 15 15 15 15 16 16 16 16 15 16 17 16 16 16 16
22 21 22 21 21 22 17 17 18 18 17 17 16 15 16 16 15 14 13 13 13 12 12 12 12 12 12 13 15 15 15 15 15 16 16 16 15 15 15 16 16 16 16 16
21 21 21 21 21 20 17 16 16 17 16 15 15 14 14 14 15 13 12 12 12 12 12 12 12 12 12 13 14 15 15 15 15 16 17 17 16 15 16 15 16 17 17 16
22 22 22 21 21 20 16 17 17 17 16 15 15 14 14 15 14 13 12 13 13 13 13 13 13 12 12 12 14 15 15 15 15 16 16 17 17 17 16 16 17 17 17 17
23 22 22 22 22 20 17 18 19 18 16 15 15 14 14 15 14 14 14 13 13 13 13 13 13 13 13 13 14 14 14 14 15 16 16 17 17 17 17 17 18 18 18 18
23 23 23 23 23 20 19 20 20 19 18 17 16 15 15 14 14 15 14 13 13 13 13 12 13 13 14 14 13 14 15 15 16 16 16 16 17 17 17 17 17 17 17 18
25 24 23 23 22 21 21 22 22 21 19 19 18 16 16 16 16 15 16 15 14 13 13 13 13 13 13 13 13 14 15 16 17 17 17 16 16 17 18 18 18 17 17 18
25 24 24 24 22 22 22 23 22 21 20 19 19 18 17 16 16 17 16 16 15 14 14 14 14 14 13 14 14 14 14 15 16 17 18 17 17 17 17 18 18 17 17 17
25 25 25 24 23 23 23 22 22 21 21 20 20 18 18 18 17 17 17 16 15 15 15 15 14 15 14 14 14 15 15 15 15 17 18 18 18 18 18 18 17 17 17 17
26 26 26 25 25 25 24 23 23 23 22 22 22 20 20 19 19 18 18 17 16 17 16 16 15 15 15 15 15 15 16 16 17 17 17 17 18 18 18 18 17 17 17 17
Wind_Direction
277 273 271 266 263 262 261 258 256 252 249 249 248 250 253 255 257 256 255 252 249 249 249 250 249 251 249 250 250 249 246 246 247 247 247 248 249 250 249 250 249 251 255 261
272 271 267 261 259 261 265 264 261 256 252 250 249 249 249 249 251 253 251 250 247 248 251 251 251 251 249 249 248 247 249 250 247 246 246 247 248 249 251 252 251 250 253 257
273 271 266 264 262 263 264 264 263 261 259 256 253 251 251 253 249 248 251 252 252 253 253 250 249 250 249 247 246 245 246 249 246 244 245 246 247 248 252 253 252 252 252 257
268 266 263 264 263 263 263 263 261 261 259 258 257 251 251 251 249 247 250 254 258 261 260 256 254 253 248 247 247 248 247 246 244 243 245 247 246 247 250 252 252 252 255 258
268 266 265 263 261 259 257 256 259 260 259 259 260 259 252 249 248 252 256 258 260 262 259 256 257 256 251 247 245 247 246 245 245 243 244 249 250 250 251 251 251 252 255 258
267 267 265 263 260 258 256 255 255 256 260 260 261 262 255 252 254 256 258 258 259 262 259 257 257 256 253 250 245 245 246 244 242 242 245 247 248 251 253 254 254 255 255 257
266 265 266 263 256 255 256 255 256 257 256 258 258 260 259 260 259 258 262 263 261 262 260 259 257 255 251 251 248 247 248 243 239 240 245 246 246 251 254 256 256 255 255 257
265 261 261 262 259 260 258 255 258 262 261 259 258 264 266 264 263 261 265 267 265 264 261 260 257 251 250 249 249 249 248 243 240 241 245 248 248 250 253 253 254 255 255 255
261 259 257 259 260 260 260 256 258 259 262 261 261 263 264 267 267 268 269 270 269 268 267 265 258 251 249 250 249 250 246 245 244 244 246 249 250 250 252 253 253 258 254 253
257 257 254 257 259 258 259 255 252 254 261 263 261 262 267 271 271 265 267 269 266 267 268 264 257 252 250 250 249 247 246 245 245 247 248 251 251 251 251 251 253 256 255 255
256 257 253 252 256 258 256 254 254 256 262 267 267 265 267 270 272 267 265 267 265 266 264 257 255 253 250 249 246 244 243 245 246 246 247 249 251 253 254 255 256 257 255 256
255 260 255 253 256 258 258 256 257 258 264 266 268 266 266 270 271 270 272 271 267 263 261 256 252 251 250 248 245 243 241 245 246 246 246 249 251 254 256 255 255 255 254 254
254 256 257 255 255 257 257 257 259 263 265 265 266 268 267 272 271 270 270 269 263 259 258 256 252 248 249 247 245 244 245 247 248 249 249 250 251 252 254 252 249 249 251 254
254 256 257 258 258 261 258 257 260 263 265 265 265 269 267 269 270 267 263 261 261 259 256 255 254 251 249 247 247 248 248 249 249 249 249 249 250 252 253 250 248 248 250 252
253 256 258 259 260 262 260 257 258 261 263 263 265 267 268 267 265 265 261 260 260 258 255 252 253 255 251 247 247 251 252 249 248 249 249 248 249 250 251 250 249 248 248 249
254 256 258 259 261 261 261 258 256 258 259 261 264 264 265 263 261 262 261 260 261 261 259 254 252 254 253 251 250 252 253 251 249 248 249 248 248 249 250 249 248 248 247 250
253 255 257 258 258 259 258 258 255 257 259 260 262 262 260 260 261 260 258 257 262 263 261 254 251 252 253 252 254 255 253 252 251 251 251 250 251 251 252 251 250 248 248 251
253 253 256 259 258 258 260 256 256 257 260 261 261 259 258 258 259 258 256 257 262 261 256 255 254 252 253 252 253 251 248 248 250 251 252 251 253 253 255 253 251 249 249 251
253 253 255 257 257 256 254 254 254 255 258 260 259 256 255 255 252 253 254 256 259 258 255 253 252 253 254 252 249 247 247 247 248 250 251 252 253 255 256 255 254 250 249 251
253 253 255 255 255 253 252 251 250 255 257 257 255 254 254 252 251 250 250 251 252 253 254 253 251 253 254 254 251 249 249 249 249 250 251 250 248 254 256 258 254 250 250 252
251 253 254 254 255 254 251 249 252 255 256 254 253 252 252 251 251 250 250 251 252 251 252 253 253 254 257 256 254 255 256 256 254 252 252 252 252 254 256 258 256 252 253 251
251 251 252 253 253 253 252 250 250 252 252 252 250 250 250 251 248 248 251 253 253 250 250 252 253 254 255 256 255 257 258 258 257 255 254 255 255 256 256 256 254 252 251 252
249 251 251 252 252 252 250 251 249 250 251 250 248 249 249 250 248 250 251 252 251 252 253 251 250 253 256 257 258 259 258 258 257 256 256 260 260 261 260 257 254 253 253 255
250 251 251 251 249 248 248 248 249 250 250 251 250 251 248 248 247 249 251 249 249 252 254 255 253 254 257 258 260 261 261 260 257 254 255 259 259 262 262 260 256 253 256 258
249 250 250 250 250 248 247 249 249 248 247 247 249 249 246 245 246 249 249 252 252 254 254 256 259 258 258 259 261 262 264 263 259 255 256 258 259 260 262 261 258 254 256 259
248 249 249 248 248 249 247 247 247 248 249 248 248 246 244 245 246 249 250 250 251 253 254 255 257 259 258 258 260 262 263 263 261 259 259 259 259 259 261 261 257 254 257 260
Height
5856 5857 5857 5857 5857 5857 5857 5857 5857 5858 5858 5858 5859 5859 5860 5861 5861 5862 5862 5863 5864 5864 5865 5865 5866 5867 5867 5868 5868 5869 5870 5871 5871 5872 5873 5873 5874 5875 5875 5876 5876 5876 5877 5877
5854 5854 5854 5853 5853 5853 5853 5854 5854 5854 5855 5855 5855 5856 5857 5857 5858 5859 5859 5860 5860 5861 5861 5862 5863 5864 5864 5865 5865 5866 5867 5867 5868 5869 5870 5870 5871 5872 5872 5873 5873 5873 5874 5874
5851 5852 5850 5850 5850 5850 5850 5851 5851 5851 5851 5851 5851 5852 5854 5854 5854 5855 5856 5856 5857 5858 5858 5858 5859 5860 5861 5862 5862 5863 5864 5864 5865 5866 5867 5867 5868 5869 5869 5870 5870 5871 5871 5871
5847 5847 5847 5847 5847 5847 5847 5847 5847 5847 5847 5848 5849 5849 5851 5851 5851 5852 5853 5853 5854 5854 5855 5855 5856 5856 5857 5858 5859 5860 5861 5861 5862 5863 5864 5864 5865 5866 5866 5867 5867 5868 5868 5868
5844 5844 5843 5843 5844 5844 5844 5844 5844 5844 5844 5845 5845 5845 5847 5847 5848 5849 5850 5850 5851 5851 5851 5852 5852 5853 5854 5855 5856 5856 5857 5858 5859 5860 5861 5862 5862 5863 5863 5864 5864 5864 5865 5865
5841 5840 5840 5840 5840 5840 5840 5841 5841 5841 5841 5842 5842 5842 5843 5844 5845 5846 5846 5847 5847 5847 5848 5848 5849 5850 5850 5851 5852 5853 5854 5855 5856 5857 5858 5858 5859 5860 5860 5860 5861 5861 5861 5862
5837 5837 5837 5837 5837 5837 5837 5838 5838 5838 5837 5838 5839 5838 5840 5841 5841 5842 5843 5843 5844 5844 5844 5845 5845 5846 5847 5848 5849 5850 5850 5851 5852 5853 5854 5855 5855 5856 5856 5857 5857 5858 5858 5858
5833 5834 5834 5833 5833 5833 5833 5834 5835 5835 5834 5835 5834 5834 5837 5837 5837 5838 5838 5839 5839 5840 5840 5841 5841 5842 5843 5844 5845 5846 5847 5848 5849 5849 5850 5851 5852 5852 5853 5853 5854 5854 5855 5855
5829 5830 5830 5830 5829 5830 5830 5830 5831 5831 5831 5831 5831 5832 5833 5834 5834 5834 5834 5835 5835 5836 5836 5837 5837 5838 5839 5840 5841 5842 5843 5844 5845 5846 5847 5847 5848 5849 5849 5849 5850 5850 5851 5851
5825 5826 5826 5826 5826 5826 5826 5826 5827 5827 5827 5826 5827 5828 5829 5830 5830 5831 5831 5831 5831 5832 5832 5833 5833 5834 5835 5836 5837 5837 5839 5840 5840 5842 5843 5843 5844 5845 5845 5846 5846 5847 5847 5847
5820 5822 5823 5822 5822 5822 5823 5823 5823 5823 5823 5823 5823 5827 5826 5826 5826 5826 5827 5827 5828 5828 5829 5829 5829 5830 5830 5831 5833 5833 5835 5836 5837 5838 5838 5839 5840 5841 5841 5842 5842 5843 5843 5844
5816 5817 5817 5819 5819 5818 5818 5818 5819 5819 5819 5819 5819 5824 5822 5822 5822 5822 5822 5823 5823 5824 5824 5825 5826 5826 5827 5827 5828 5829 5830 5831 5832 5833 5834 5835 5836 5837 5837 5838 5838 5839 5839 5840
5811 5812 5813 5814 5816 5815 5814 5814 5814 5815 5815 5815 5815 5820 5818 5818 5818 5818 5818 5819 5819 5820 5820 5821 5822 5822 5823 5824 5824 5825 5826 5827 5828 5829 5830 5831 5832 5833 5833 5833 5834 5835 5835 5836
5807 5807 5809 5810 5810 5809 5810 5810 5810 5810 5810 5810 5811 5813 5814 5814 5814 5815 5815 5815 5815 5816 5816 5817 5818 5818 5819 5820 5821 5821 5822 5823 5824 5825 5826 5826 5827 5828 5829 5829 5830 5831 5831 5832
5801 5802 5803 5804 5804 5804 5805 5805 5805 5805 5805 5806 5807 5808 5810 5810 5810 5810 5811 5811 5811 5812 5813 5813 5814 5815 5816 5816 5817 5817 5818 5818 5819 5820 5821 5822 5823 5824 5824 5825 5826 5826 5827 5828
5796 5797 5798 5798 5799 5798 5799 5800 5800 5800 5801 5801 5803 5804 5805 5805 5806 5806 5806 5807 5808 5808 5808 5809 5810 5811 5811 5812 5813 5813 5814 5814 5815 5816 5816 5817 5818 5819 5820 5821 5821 5822 5823 5824
5791 5792 5792 5793 5793 5793 5794 5796 5795 5796 5797 5797 5798 5800 5800 5800 5801 5802 5802 5802 5803 5804 5804 5805 5805 5806 5807 5808 5809 5809 5810 5810 5811 5812 5812 5813 5814 5815 5816 5816 5817 5818 5819 5820
5785 5786 5786 5787 5788 5788 5793 5791 5791 5791 5792 5793 5793 5794 5795 5796 5797 5797 5798 5799 5799 5800 5801 5801 5801 5803 5804 5804 5805 5805 5806 5806 5807 5808 5808 5809 5810 5811 5811 5812 5813 5814 5815 5815
5779 5780 5780 5781 5781 5782 5785 5786 5786 5786 5787 5788 5788 5789 5790 5791 5792 5793 5794 5795 5796 5796 5797 5798 5799 5799 5800 5800 5801 5801 5802 5803 5803 5804 5805 5806 5806 5807 5807 5808 5809 5809 5810 5811
5773 5774 5775 5775 5775 5777 5781 5781 5780 5782 5782 5783 5783 5784 5785 5786 5788 5790 5790 5791 5791 5792 5793 5793 5794 5795 5796 5797 5797 5798 5798 5799 5799 5800 5801 5801 5802 5803 5803 5804 5804 5805 5805 5806
5767 5767 5768 5769 5769 5771 5774 5775 5775 5777 5779 5778 5778 5779 5780 5782 5784 5785 5786 5786 5787 5788 5788 5789 5790 5791 5792 5792 5793 5794 5795 5795 5795 5796 5796 5797 5798 5798 5799 5799 5799 5800 5801 5801
5760 5761 5762 5763 5764 5768 5768 5769 5770 5771 5772 5772 5773 5774 5775 5777 5778 5780 5781 5782 5783 5784 5784 5785 5786 5787 5788 5788 5789 5790 5790 5791 5791 5791 5792 5792 5793 5793 5794 5794 5795 5795 5796 5796
5752 5755 5755 5757 5760 5761 5761 5762 5763 5764 5766 5767 5768 5770 5771 5772 5773 5775 5776 5777 5779 5780 5781 5781 5782 5783 5784 5784 5785 5785 5786 5786 5786 5786 5787 5788 5788 5789 5789 5789 5790 5790 5791 5791
5746 5747 5748 5750 5752 5753 5754 5756 5757 5759 5760 5761 5763 5765 5766 5767 5768 5770 5771 5773 5774 5775 5776 5777 5778 5779 5780 5780 5781 5781 5781 5781 5782 5782 5783 5783 5784 5784 5784 5784 5785 5785 5786 5786
5739 5740 5741 5742 5745 5746 5748 5749 5751 5752 5754 5756 5757 5759 5760 5762 5764 5765 5767 5768 5769 5770 5771 5773 5774 5774 5775 5776 5776 5777 5777 5777 5778 5778 5778 5779 5779 5779 5779 5779 5780 5780 5781 5781
5731 5733 5734 5736 5738 5739 5741 5743 5744 5746 5748 5749 5751 5753 5754 5756 5758 5760 5762 5763 5765 5766 5767 5768 5769 5770 5770 5771 5772 5772 5772 5772 5773 5773 5773 5774 5774 5775 5775 5775 5775 5775 5776 5776